Location: The Saddle
(36.8333°N, 80.3417°W)
Time: 07:32:32
(UTC-04:00)

Vanguard 3 - Pass Details

Date: 25 February 2024
Orbit: 510 x 3234 km, 33.3° (Epoch: 24 April)

Event Time Altitude Azimuth Distance (km) Brightness Sun altitude
Rises 23:51:34 0° 269° (W) 7,201 12.1 -60.8°
Reaches altitude 10° 23:56:30 10° 268° (W) 6,145 11.6 -61.1°
Enters shadow 00:02:58 26° 266° (W) 4,740 10.9 -61.5°
